| time (UTC) | temp F | wind direction | speed knots | gust knots | rain 1hr in | rain 24hr in | rain mn in | humidity % | barometer mb |
| 20260508010017 | 41 | 195 | 0.0 | 0.0 | 0.00 | 0.00 | 0.00 | 79 | 1019.3 |
| 20260508004510 | 41 | 194 | 0.0 | 2.6 | 0.00 | 0.00 | 0.00 | 79 | 1019.4 |
| 20260508003009 | 41 | 195 | 0.0 | 1.7 | 0.00 | 0.00 | 0.00 | 79 | 1019.4 |
| 20260508001508 | 41 | 195 | 0.0 | 0.9 | 0.00 | 0.00 | 0.00 | 78 | 1019.4 |
| 20260508000006 | 41 | 195 | 0.0 | 1.7 | 0.00 | 0.00 | 0.00 | 78 | 1019.5 |
| 20260507234506 | 41 | 197 | 0.9 | 2.6 | 0.00 | 0.00 | 0.00 | 78 | 1019.4 |
| 20260507233005 | 41 | 214 | 0.0 | 1.7 | 0.00 | 0.00 | 0.00 | 78 | 1019.5 |
| 20260507231509 | 41 | 217 | 0.0 | 1.7 | 0.00 | 0.00 | 0.00 | 77 | 1019.6 |
| 20260507230001 | 42 | 218 | 0.0 | 1.7 | 0.00 | 0.00 | 0.00 | 76 | 1019.5 |
| 20260507224601 | 42 | 218 | 0.9 | 1.7 | 0.00 | 0.00 | 0.00 | 76 | 1019.4 |
| 20260507223058 | 42 | 218 | 0.0 | 1.7 | 0.00 | 0.00 | 0.00 | 74 | 1019.4 |
| 20260507221600 | 43 | 217 | 0.9 | 2.6 | 0.00 | 0.00 | 0.00 | 73 | 1019.5 |
| 20260507220054 | 43 | 216 | 0.9 | 3.5 | 0.00 | 0.00 | 0.00 | 72 | 1019.5 |
| 20260507214553 | 43 | 223 | 0.9 | 3.5 | 0.00 | 0.00 | 0.00 | 72 | 1019.5 |
| 20260507213100 | 43 | 228 | 0.9 | 2.6 | 0.00 | 0.00 | 0.00 | 71 | 1019.4 |
| 20260507211557 | 43 | 230 | 0.9 | 2.6 | 0.00 | 0.00 | 0.00 | 70 | 1019.4 |
| 20260507210052 | 44 | 229 | 0.9 | 2.6 | 0.00 | 0.00 | 0.00 | 67 | 1019.3 |
| 20260507204557 | 44 | 230 | 1.7 | 3.5 | 0.00 | 0.00 | 0.00 | 66 | 1019.3 |
| 20260507203052 | 45 | 232 | 0.9 | 3.5 | 0.00 | 0.00 | 0.00 | 62 | 1019.4 |
| 20260507201601 | 45 | 225 | 1.7 | 3.5 | 0.00 | 0.00 | 0.00 | 59 | 1019.3 |
| 20260507200054 | 46 | 233 | 1.7 | 3.5 | 0.00 | 0.00 | 0.00 | 58 | 1019.1 |
| 20260507194557 | 47 | 226 | 1.7 | 3.5 | 0.00 | 0.00 | 0.00 | 58 | 1018.9 |
| 20260507193046 | 47 | 230 | 0.9 | 3.5 | 0.00 | 0.00 | 0.00 | 58 | 1018.7 |
| 20260507191605 | 48 | 260 | 0.9 | 4.3 | 0.00 | 0.00 | 0.00 | 58 | 1018.6 |
| 20260507190045 | 49 | 260 | 0.9 | 3.5 | 0.00 | 0.00 | 0.00 | 55 | 1018.5 |
| 20260507184555 | 49 | 305 | 1.7 | 4.3 | 0.00 | 0.00 | 0.00 | 52 | 1018.5 |
| 20260507183047 | 49 | 307 | 0.0 | 3.5 | 0.00 | 0.00 | 0.00 | 51 | 1018.4 |
| 20260507181542 | 50 | 305 | 1.7 | 4.3 | 0.00 | 0.00 | 0.00 | 50 | 1018.4 |
| 20260507180042 | 50 | 297 | 1.7 | 4.3 | 0.00 | 0.00 | 0.00 | 49 | 1018.2 |
| 20260507174545 | 50 | 308 | 2.6 | 7.0 | 0.00 | 0.00 | 0.00 | 49 | 1018.3 |
| 20260507173041 | 51 | 299 | 2.6 | 7.0 | 0.00 | 0.00 | 0.00 | 47 | 1018.3 |
| 20260507171548 | 51 | 307 | 2.6 | 4.3 | 0.00 | 0.00 | 0.00 | 47 | 1018.2 |
| 20260507170041 | 51 | 308 | 2.6 | 7.0 | 0.00 | 0.00 | 0.00 | 48 | 1018.3 |
| 20260507164555 | 51 | 303 | 2.6 | 7.0 | 0.00 | 0.00 | 0.00 | 50 | 1018.2 |
| 20260507163040 | 51 | 303 | 2.6 | 7.8 | 0.00 | 0.00 | 0.00 | 50 | 1018.2 |
| 20260507161540 | 51 | 297 | 3.5 | 7.8 | 0.00 | 0.00 | 0.00 | 52 | 1018.2 |
| 20260507160040 | 51 | 324 | 3.5 | 7.0 | 0.00 | 0.00 | 0.00 | 48 | 1018.2 |
| 20260507154538 | 53 | 305 | 3.5 | 7.8 | 0.00 | 0.00 | 0.00 | 46 | 1018.3 |
| 20260507153038 | 53 | 318 | 2.6 | 8.7 | 0.00 | 0.00 | 0.00 | 48 | 1018.3 |
| 20260507151538 | 53 | 279 | 1.7 | 7.8 | 0.00 | 0.00 | 0.00 | 46 | 1018.3 |
| 20260507150038 | 52 | 311 | 1.7 | 7.0 | 0.00 | 0.00 | 0.00 | 44 | 1018.3 |
| 20260507144537 | 53 | 307 | 4.3 | 7.8 | 0.00 | 0.00 | 0.00 | 46 | 1018.4 |
| 20260507143055 | 53 | 302 | 2.6 | 7.0 | 0.00 | 0.00 | 0.00 | 47 | 1018.4 |
| 20260507141553 | 54 | 322 | 2.6 | 7.8 | 0.00 | 0.00 | 0.00 | 45 | 1018.3 |
| 20260507140035 | 54 | 312 | 3.5 | 7.8 | 0.00 | 0.00 | 0.00 | 48 | 1018.4 |
| 20260507134535 | 54 | 304 | 2.6 | 7.8 | 0.00 | 0.00 | 0.00 | 46 | 1018.3 |
| 20260507133037 | 55 | 354 | 3.5 | 7.8 | 0.00 | 0.00 | 0.00 | 44 | 1018.4 |
| 20260507131538 | 54 | 318 | 3.5 | 8.7 | 0.00 | 0.00 | 0.00 | 43 | 1018.4 |
| 20260507130040 | 54 | 297 | 4.3 | 9.6 | 0.00 | 0.00 | 0.00 | 41 | 1018.4 |
| 20260507124535 | 54 | 322 | 1.7 | 8.7 | 0.00 | 0.00 | 0.00 | 41 | 1018.4 |
| 20260507123031 | 54 | 320 | 4.3 | 10.4 | 0.00 | 0.00 | 0.00 | 43 | 1018.3 |
| 20260507121529 | 54 | 359 | 2.6 | 7.0 | 0.00 | 0.00 | 0.00 | 45 | 1018.3 |
| 20260507120027 | 54 | 325 | 1.7 | 7.8 | 0.00 | 0.00 | 0.00 | 44 | 1018.3 |
| 20260507114529 | 53 | 290 | 2.6 | 7.0 | 0.00 | 0.00 | 0.00 | 47 | 1018.4 |
| 20260507113025 | 53 | 336 | 2.6 | 7.0 | 0.00 | 0.00 | 0.00 | 47 | 1018.4 |
| 20260507111522 | 53 | 295 | 1.7 | 5.2 | 0.00 | 0.00 | 0.00 | 48 | 1018.4 |
| 20260507110022 | 52 | 11 | 1.7 | 7.0 | 0.00 | 0.00 | 0.00 | 50 | 1018.4 |
| 20260507104519 | 52 | 41 | 1.7 | 4.3 | 0.00 | 0.00 | 0.00 | 48 | 1018.4 |
| 20260507103016 | 51 | 333 | 0.9 | 5.2 | 0.00 | 0.00 | 0.00 | 53 | 1018.5 |
| 20260507101516 | 50 | 337 | 0.9 | 5.2 | 0.00 | 0.00 | 0.00 | 51 | 1018.5 |
| 20260507100010 | 49 | 301 | 0.9 | 7.0 | 0.00 | 0.00 | 0.00 | 55 | 1018.5 |
| 20260507094509 | 48 | 320 | 1.7 | 5.2 | 0.00 | 0.00 | 0.00 | 56 | 1018.4 |
| 20260507093005 | 47 | 341 | 2.6 | 7.8 | 0.00 | 0.00 | 0.00 | 59 | 1018.4 |
| 20260507091506 | 47 | 295 | 3.5 | 7.8 | 0.00 | 0.00 | 0.00 | 61 | 1018.4 |
| 20260507090004 | 47 | 343 | 3.5 | 7.8 | 0.00 | 0.00 | 0.00 | 61 | 1018.4 |
| 20260507084503 | 47 | 354 | 1.7 | 7.0 | 0.00 | 0.00 | 0.00 | 62 | 1018.4 |
| 20260507083000 | 46 | 324 | 1.7 | 5.2 | 0.00 | 0.00 | 0.00 | 61 | 1018.4 |
| 20260507081603 | 45 | 333 | 1.7 | 7.8 | 0.00 | 0.00 | 0.00 | 62 | 1018.3 |
| 20260507080119 | 46 | 310 | 1.7 | 7.0 | 0.00 | 0.00 | 0.00 | 62 | 1018.2 |
| 20260507074600 | 46 | 95 | 0.9 | 3.5 | 0.00 | 0.00 | 0.00 | 64 | 1018.2 |
| 20260507073056 | 46 | 65 | 0.9 | 3.5 | 0.00 | 0.00 | 0.00 | 64 | 1018.3 |
| 20260507071552 | 45 | 324 | 0.0 | 3.5 | 0.00 | 0.00 | 0.00 | 70 | 1018.2 |
| 20260507070054 | 44 | 255 | 0.9 | 2.6 | 0.00 | 0.00 | 0.00 | 75 | 1018.1 |
| 20260507064617 | 43 | 278 | 0.9 | 2.6 | 0.00 | 0.00 | 0.00 | 75 | 1018.1 |
| 20260507063042 | 42 | 33 | 0.0 | 2.6 | 0.00 | 0.00 | 0.00 | 77 | 1018.0 |
| 20260507061540 | 41 | 312 | 0.9 | 2.6 | 0.00 | 0.00 | 0.00 | 79 | 1017.9 |
| 20260507060049 | 40 | 292 | 0.0 | 1.7 | 0.00 | 0.00 | 0.00 | 80 | 1017.9 |
| 20260507054543 | 40 | 299 | 0.0 | 1.7 | 0.00 | 0.00 | 0.00 | 81 | 1017.9 |
| 20260507053039 | 40 | 299 | 0.0 | 2.6 | 0.00 | 0.00 | 0.00 | 83 | 1017.9 |
| 20260507051542 | 39 | 295 | 0.0 | 2.6 | 0.00 | 0.00 | 0.00 | 85 | 1017.7 |
| 20260507050044 | 39 | 343 | 0.0 | 1.7 | 0.00 | 0.00 | 0.00 | 86 | 1017.7 |
| 20260507044535 | 38 | 341 | 0.0 | 1.7 | 0.00 | 0.00 | 0.00 | 86 | 1017.6 |
| 20260507043034 | 38 | 344 | 0.0 | 0.9 | 0.00 | 0.00 | 0.00 | 85 | 1017.7 |
| 20260507041533 | 38 | 344 | 0.0 | 2.6 | 0.00 | 0.00 | 0.00 | 85 | 1017.4 |
| 20260507040031 | 38 | 347 | 0.0 | 2.6 | 0.00 | 0.00 | 0.00 | 85 | 1017.5 |
| 20260507034530 | 38 | 9 | 0.0 | 1.7 | 0.00 | 0.00 | 0.00 | 85 | 1017.3 |
| 20260507033029 | 38 | 9 | 0.0 | 1.7 | 0.00 | 0.00 | 0.00 | 85 | 1017.4 |
| 20260507031528 | 38 | 359 | 0.9 | 3.5 | 0.00 | 0.00 | 0.00 | 85 | 1017.4 |
| 20260507030029 | 38 | 345 | 0.0 | 1.7 | 0.00 | 0.00 | 0.00 | 84 | 1017.3 |
| 20260507024527 | 38 | 345 | 0.9 | 1.7 | 0.00 | 0.00 | 0.00 | 84 | 1017.3 |
| 20260507023023 | 37 | 359 | 0.0 | 2.6 | 0.00 | 0.00 | 0.00 | 84 | 1017.1 |
| 20260507021521 | 37 | 359 | 0.0 | 1.7 | 0.00 | 0.00 | 0.00 | 83 | 1017.1 |
| 20260507020022 | 38 | 4 | 0.0 | 1.7 | 0.00 | 0.00 | 0.00 | 83 | 1017.0 |
| 20260507014519 | 38 | 4 | 0.0 | 1.7 | 0.00 | 0.00 | 0.00 | 82 | 1017.0 |
| 20260507013016 | 38 | 4 | 0.0 | 1.7 | 0.00 | 0.00 | 0.00 | 81 | 1016.9 |
| 20260507011516 | 38 | 4 | 0.0 | 2.6 | 0.00 | 0.00 | 0.00 | 81 | 1016.9 |